| time (UTC) | temp F | wind direction | speed MPH | gust MPH | rain 1hr in | rain 24hr in | rain mn in | humidity % | barometer mb |
| 20260506062254 | 57 | 261 | 1.0 | 3.0 | 0.00 | 0.07 | 0.07 | 75 | 1017.2 |
| 20260506061753 | 57 | 259 | 1.0 | 3.0 | 0.00 | 0.07 | 0.07 | 75 | 1017.2 |
| 20260506061252 | 57 | 259 | 1.0 | 3.0 | 0.00 | 0.07 | 0.07 | 75 | 1017.1 |
| 20260506060751 | 58 | 258 | 1.0 | 3.0 | 0.00 | 0.07 | 0.07 | 74 | 1017.1 |
| 20260506060252 | 58 | 258 | 1.0 | 3.0 | 0.00 | 0.07 | 0.07 | 74 | 1017.0 |
| 20260506051235 | 60 | 255 | 0.0 | 2.0 | 0.00 | 0.07 | 0.07 | 71 | 1016.6 |
| 20260506050733 | 60 | 255 | 0.0 | 2.0 | 0.00 | 0.07 | 0.07 | 71 | 1016.5 |
| 20260506050232 | 60 | 255 | 0.0 | 2.0 | 0.00 | 0.07 | 0.07 | 71 | 1016.5 |
| 20260506044726 | 60 | 256 | 0.0 | 2.0 | 0.00 | 0.07 | 0.07 | 70 | 1016.4 |
| 20260506044226 | 60 | 256 | 0.0 | 2.0 | 0.00 | 0.07 | 0.07 | 70 | 1016.4 |
| 20260506043721 | 61 | 256 | 1.0 | 4.0 | 0.00 | 0.07 | 0.07 | 70 | 1016.3 |
| 20260506043220 | 61 | 256 | 3.0 | 4.0 | 0.00 | 0.07 | 0.07 | 70 | 1016.2 |
| 20260506042719 | 61 | 245 | 3.0 | 7.0 | 0.00 | 0.07 | 0.07 | 70 | 1016.0 |
| 20260506042216 | 61 | 247 | 3.0 | 7.0 | 0.00 | 0.07 | 0.07 | 69 | 1016.0 |
| 20260506041716 | 61 | 242 | 3.0 | 7.0 | 0.00 | 0.07 | 0.07 | 69 | 1015.9 |
| 20260506041212 | 61 | 245 | 4.0 | 7.0 | 0.00 | 0.07 | 0.07 | 69 | 1015.7 |
| 20260506040936 | 61 | 250 | 4.0 | 8.0 | 0.00 | 0.07 | 0.07 | 69 | 1015.7 |
| 20260506040210 | 62 | 243 | 4.0 | 8.0 | 0.00 | 0.07 | 0.07 | 69 | 1015.7 |
| 20260506035709 | 62 | 234 | 3.0 | 7.0 | 0.00 | 0.07 | 0.07 | 69 | 1015.8 |
| 20260506035430 | 62 | 244 | 3.0 | 7.0 | 0.00 | 0.07 | 0.07 | 69 | 1015.8 |
| 20260506034708 | 62 | 235 | 3.0 | 7.0 | 0.00 | 0.07 | 0.07 | 69 | 1015.7 |
| 20260506034208 | 62 | 241 | 4.0 | 7.0 | 0.00 | 0.07 | 0.07 | 69 | 1015.7 |
| 20260506033708 | 62 | 238 | 3.0 | 6.0 | 0.00 | 0.07 | 0.07 | 68 | 1015.7 |
| 20260506033206 | 62 | 232 | 3.0 | 7.0 | 0.00 | 0.07 | 0.07 | 68 | 1015.6 |
| 20260506032705 | 62 | 236 | 3.0 | 7.0 | 0.00 | 0.07 | 0.07 | 68 | 1015.5 |
| 20260506032207 | 62 | 247 | 4.0 | 8.0 | 0.00 | 0.07 | 0.07 | 68 | 1015.4 |
| 20260506031705 | 63 | 243 | 3.0 | 8.0 | 0.00 | 0.07 | 0.07 | 68 | 1015.4 |
| 20260506031203 | 63 | 258 | 3.0 | 8.0 | 0.00 | 0.07 | 0.07 | 68 | 1015.3 |
| 20260506030655 | 63 | 237 | 3.0 | 8.0 | 0.00 | 0.07 | 0.07 | 67 | 1015.3 |
| 20260506030154 | 63 | 240 | 3.0 | 7.0 | 0.00 | 0.07 | 0.07 | 67 | 1015.2 |
| 20260506025921 | 63 | 263 | 3.0 | 7.0 | 0.00 | 0.07 | 0.07 | 67 | 1015.3 |
| 20260506025152 | 63 | 232 | 3.0 | 7.0 | 0.00 | 0.07 | 0.07 | 67 | 1015.2 |
| 20260506024914 | 63 | 267 | 3.0 | 7.0 | 0.00 | 0.07 | 0.07 | 67 | 1015.1 |
| 20260506024150 | 64 | 232 | 3.0 | 8.0 | 0.00 | 0.07 | 0.07 | 67 | 1015.1 |
| 20260506023649 | 64 | 268 | 3.0 | 8.0 | 0.00 | 0.07 | 0.07 | 67 | 1015.1 |
| 20260506023150 | 64 | 240 | 3.0 | 6.0 | 0.00 | 0.07 | 0.07 | 67 | 1015.0 |
| 20260506022650 | 64 | 281 | 3.0 | 6.0 | 0.00 | 0.07 | 0.07 | 66 | 1015.0 |
| 20260506022148 | 64 | 252 | 3.0 | 6.0 | 0.00 | 0.07 | 0.07 | 66 | 1014.9 |
| 20260506021646 | 64 | 219 | 3.0 | 5.0 | 0.00 | 0.07 | 0.07 | 66 | 1014.9 |
| 20260506021144 | 64 | 230 | 3.0 | 7.0 | 0.00 | 0.07 | 0.07 | 66 | 1014.9 |
| 20260506020641 | 64 | 240 | 4.0 | 9.0 | 0.00 | 0.07 | 0.07 | 66 | 1014.8 |
| 20260506020142 | 65 | 238 | 4.0 | 9.0 | 0.00 | 0.07 | 0.07 | 66 | 1014.8 |
| 20260506015642 | 65 | 211 | 4.0 | 8.0 | 0.00 | 0.07 | 0.07 | 66 | 1014.7 |
| 20260506015401 | 65 | 225 | 4.0 | 8.0 | 0.00 | 0.07 | 0.07 | 66 | 1014.7 |
| 20260506014634 | 65 | 248 | 4.0 | 8.0 | 0.00 | 0.07 | 0.07 | 66 | 1014.7 |
| 20260506014134 | 65 | 219 | 3.0 | 7.0 | 0.00 | 0.07 | 0.07 | 66 | 1014.6 |
| 20260506013634 | 65 | 220 | 3.0 | 7.0 | 0.00 | 0.07 | 0.07 | 66 | 1014.7 |
| 20260506013135 | 65 | 194 | 3.0 | 5.0 | 0.00 | 0.07 | 0.07 | 66 | 1014.7 |
| 20260506012632 | 65 | 231 | 2.0 | 5.0 | 0.00 | 0.07 | 0.07 | 66 | 1014.7 |
| 20260506012125 | 65 | 213 | 2.0 | 4.0 | 0.00 | 0.07 | 0.07 | 65 | 1014.7 |
| 20260506011627 | 65 | 227 | 2.0 | 5.0 | 0.00 | 0.07 | 0.07 | 65 | 1014.6 |
| 20260506011124 | 65 | 205 | 2.0 | 5.0 | 0.00 | 0.07 | 0.07 | 65 | 1014.6 |
| 20260506010845 | 65 | 211 | 2.0 | 5.0 | 0.00 | 0.07 | 0.07 | 65 | 1014.7 |
| 20260506010124 | 65 | 193 | 3.0 | 7.0 | 0.00 | 0.07 | 0.07 | 65 | 1014.7 |
| 20260506005621 | 65 | 198 | 3.0 | 8.0 | 0.00 | 0.07 | 0.07 | 65 | 1014.6 |
| 20260506005123 | 65 | 224 | 3.0 | 8.0 | 0.00 | 0.07 | 0.07 | 66 | 1014.6 |
| 20260506004620 | 65 | 206 | 3.0 | 8.0 | 0.00 | 0.07 | 0.07 | 66 | 1014.6 |
| 20260506004119 | 65 | 216 | 3.0 | 8.0 | 0.00 | 0.07 | 0.07 | 66 | 1014.6 |
| 20260506003611 | 65 | 205 | 3.0 | 7.0 | 0.00 | 0.07 | 0.07 | 66 | 1014.6 |
| 20260506003111 | 65 | 200 | 3.0 | 8.0 | 0.00 | 0.07 | 0.07 | 66 | 1014.6 |
| 20260506002608 | 65 | 223 | 3.0 | 8.0 | 0.00 | 0.07 | 0.07 | 66 | 1014.6 |
| 20260506002325 | 66 | 225 | 3.0 | 7.0 | 0.00 | 0.07 | 0.07 | 66 | 1014.5 |
| 20260506001607 | 66 | 228 | 3.0 | 7.0 | 0.00 | 0.07 | 0.07 | 65 | 1014.5 |
| 20260506001105 | 66 | 241 | 4.0 | 8.0 | 0.00 | 0.07 | 0.07 | 65 | 1014.5 |
| 20260506000604 | 66 | 270 | 4.0 | 8.0 | 0.00 | 0.07 | 0.07 | 65 | 1014.5 |
| 20260506000101 | 66 | 242 | 4.0 | 8.0 | 0.00 | 0.07 | 0.07 | 65 | 1014.5 |
| 20260505235559 | 66 | 234 | 4.0 | 8.0 | 0.00 | 0.07 | 0.07 | 65 | 1014.5 |
| 20260505235059 | 66 | 246 | 3.0 | 8.0 | 0.00 | 0.07 | 0.07 | 65 | 1014.5 |
| 20260505234600 | 66 | 282 | 2.0 | 6.0 | 0.00 | 0.07 | 0.07 | 65 | 1014.5 |
| 20260505234059 | 66 | 250 | 2.0 | 5.0 | 0.00 | 0.07 | 0.07 | 65 | 1014.5 |
| 20260505233831 | 66 | 232 | 2.0 | 5.0 | 0.00 | 0.07 | 0.07 | 65 | 1014.5 |
| 20260505233050 | 66 | 233 | 2.0 | 5.0 | 0.00 | 0.07 | 0.07 | 65 | 1014.4 |
| 20260505232550 | 66 | 195 | 2.0 | 5.0 | 0.00 | 0.07 | 0.07 | 65 | 1014.5 |
| 20260505232050 | 66 | 169 | 2.0 | 5.0 | 0.00 | 0.07 | 0.07 | 66 | 1014.4 |
| 20260505231550 | 66 | 270 | 1.0 | 4.0 | 0.00 | 0.07 | 0.07 | 65 | 1014.5 |
| 20260505231049 | 66 | 274 | 2.0 | 7.0 | 0.00 | 0.07 | 0.07 | 65 | 1014.5 |
| 20260505230809 | 66 | 273 | 3.0 | 7.0 | 0.00 | 0.07 | 0.07 | 65 | 1014.5 |
| 20260505230049 | 66 | 279 | 2.0 | 7.0 | 0.00 | 0.07 | 0.07 | 65 | 1014.5 |
| 20260505225549 | 66 | 276 | 1.0 | 4.0 | 0.00 | 0.07 | 0.07 | 66 | 1014.6 |
| 20260505225049 | 66 | 274 | 2.0 | 4.0 | 0.00 | 0.07 | 0.07 | 66 | 1014.6 |
| 20260505224547 | 66 | 277 | 2.0 | 4.0 | 0.00 | 0.07 | 0.07 | 65 | 1014.6 |
| 20260505224048 | 66 | 271 | 2.0 | 5.0 | 0.00 | 0.07 | 0.07 | 66 | 1014.6 |
| 20260505223547 | 66 | 279 | 3.0 | 6.0 | 0.00 | 0.07 | 0.07 | 66 | 1014.6 |
| 20260505223044 | 66 | 246 | 3.0 | 7.0 | 0.00 | 0.07 | 0.07 | 66 | 1014.7 |
| 20260505222527 | 66 | 223 | 3.0 | 7.0 | 0.00 | 0.07 | 0.07 | 66 | 1014.7 |
| 20260505222024 | 66 | 211 | 4.0 | 7.0 | 0.00 | 0.07 | 0.07 | 66 | 1014.7 |
| 20260505221525 | 66 | 243 | 4.0 | 9.0 | 0.00 | 0.07 | 0.07 | 66 | 1014.8 |
| 20260505221021 | 66 | 242 | 5.0 | 10.0 | 0.00 | 0.07 | 0.07 | 66 | 1014.8 |
| 20260505220522 | 66 | 227 | 5.0 | 10.0 | 0.00 | 0.07 | 0.07 | 66 | 1014.8 |
| 20260505220021 | 66 | 240 | 5.0 | 10.0 | 0.00 | 0.07 | 0.07 | 65 | 1014.8 |
| 20260505215521 | 66 | 225 | 4.0 | 9.0 | 0.00 | 0.07 | 0.07 | 66 | 1014.9 |
| 20260505215022 | 66 | 257 | 4.0 | 9.0 | 0.00 | 0.07 | 0.07 | 66 | 1014.8 |
| 20260505214519 | 66 | 311 | 3.0 | 8.0 | 0.00 | 0.07 | 0.07 | 66 | 1014.8 |
| 20260505214018 | 66 | 235 | 3.0 | 8.0 | 0.00 | 0.07 | 0.07 | 66 | 1014.9 |
| 20260505213517 | 66 | 229 | 2.0 | 6.0 | 0.00 | 0.07 | 0.07 | 64 | 1014.9 |
| 20260505213019 | 66 | 217 | 2.0 | 8.0 | 0.00 | 0.07 | 0.07 | 66 | 1014.9 |
| 20260505212956 | 66 | 236 | 3.0 | 8.0 | 0.00 | 0.07 | 0.07 | 66 | 1015.0 |
| 20260505212014 | 65 | 264 | 4.0 | 8.0 | 0.00 | 0.07 | 0.07 | 67 | 1015.0 |
| 20260505211514 | 64 | 236 | 4.0 | 8.0 | 0.00 | 0.07 | 0.07 | 69 | 1015.0 |
| 20260505211011 | 64 | 217 | 4.0 | 9.0 | 0.00 | 0.07 | 0.07 | 68 | 1015.1 |
| 20260505210512 | 64 | 261 | 4.0 | 9.0 | 0.00 | 0.07 | 0.07 | 68 | 1015.1 |
| 20260505210011 | 64 | 264 | 3.0 | 8.0 | 0.00 | 0.07 | 0.07 | 68 | 1015.0 |
| 20260505205511 | 64 | 222 | 3.0 | 7.0 | 0.00 | 0.07 | 0.07 | 68 | 1015.1 |
| 20260505205012 | 65 | 251 | 3.0 | 7.0 | 0.00 | 0.07 | 0.07 | 68 | 1015.1 |
| 20260505204509 | 65 | 267 | 2.0 | 7.0 | 0.00 | 0.07 | 0.07 | 68 | 1015.1 |
| 20260505204009 | 65 | 288 | 2.0 | 4.0 | 0.00 | 0.07 | 0.07 | 67 | 1015.1 |
| 20260505203507 | 65 | 329 | 2.0 | 5.0 | 0.00 | 0.07 | 0.07 | 67 | 1015.2 |
| 20260505202953 | 65 | 315 | 2.0 | 5.0 | 0.00 | 0.07 | 0.07 | 67 | 1015.2 |
| 20260505202452 | 65 | 317 | 3.0 | 5.0 | 0.00 | 0.07 | 0.07 | 66 | 1015.2 |
| 20260505201941 | 65 | 315 | 4.0 | 8.0 | 0.00 | 0.07 | 0.07 | 66 | 1015.2 |
| 20260505201439 | 65 | 324 | 2.0 | 8.0 | 0.00 | 0.07 | 0.07 | 66 | 1015.2 |
| 20260505200939 | 65 | 294 | 2.0 | 7.0 | 0.00 | 0.07 | 0.07 | 66 | 1015.2 |
| 20260505200916 | 65 | 292 | 3.0 | 8.0 | 0.00 | 0.07 | 0.07 | 66 | 1015.2 |
| 20260505195938 | 65 | 242 | 3.0 | 8.0 | 0.00 | 0.07 | 0.07 | 66 | 1015.1 |
| 20260505195440 | 66 | 245 | 3.0 | 7.0 | 0.00 | 0.07 | 0.07 | 67 | 1015.2 |
| 20260505195159 | 65 | 292 | 3.0 | 7.0 | 0.00 | 0.07 | 0.07 | 65 | 1015.2 |
| 20260505194437 | 66 | 299 | 3.0 | 7.0 | 0.00 | 0.07 | 0.07 | 68 | 1015.3 |
| 20260505193934 | 65 | 275 | 3.0 | 8.0 | 0.00 | 0.07 | 0.07 | 69 | 1015.2 |
| 20260505193433 | 64 | 232 | 4.0 | 9.0 | 0.00 | 0.07 | 0.07 | 70 | 1015.3 |
| 20260505192931 | 63 | 257 | 4.0 | 9.0 | 0.00 | 0.07 | 0.07 | 71 | 1015.3 |
| 20260505192427 | 62 | 269 | 5.0 | 9.0 | 0.00 | 0.07 | 0.07 | 72 | 1015.4 |
| 20260505191928 | 62 | 302 | 5.0 | 10.0 | 0.00 | 0.07 | 0.07 | 72 | 1015.3 |
| 20260505191423 | 62 | 317 | 4.0 | 10.0 | 0.00 | 0.07 | 0.07 | 73 | 1015.2 |
| 20260505191143 | 61 | 300 | 4.0 | 9.0 | 0.00 | 0.07 | 0.07 | 74 | 1015.2 |
| 20260505190421 | 61 | 277 | 4.0 | 10.0 | 0.00 | 0.07 | 0.07 | 74 | 1015.2 |
| 20260505185921 | 61 | 261 | 5.0 | 10.0 | 0.00 | 0.07 | 0.07 | 74 | 1015.3 |
| 20260505185421 | 61 | 267 | 5.0 | 10.0 | 0.00 | 0.07 | 0.07 | 73 | 1015.3 |
| 20260505184925 | 61 | 279 | 6.0 | 13.0 | 0.00 | 0.07 | 0.07 | 74 | 1015.3 |
| 20260505184639 | 61 | 304 | 6.0 | 13.0 | 0.00 | 0.07 | 0.07 | 75 | 1015.2 |
| 20260505184143 | 61 | 257 | 5.0 | 10.0 | 0.00 | 0.07 | 0.07 | 74 | 1015.2 |
| 20260505183417 | 60 | 255 | 5.0 | 10.0 | 0.00 | 0.07 | 0.07 | 75 | 1015.2 |
| 20260505182917 | 60 | 310 | 5.0 | 10.0 | 0.00 | 0.07 | 0.07 | 75 | 1015.2 |
| 20260505182906 | 60 | 299 | 5.0 | 10.0 | 0.00 | 0.07 | 0.07 | 76 | 1015.2 |
| 20260505181917 | 60 | 275 | 5.0 | 10.0 | 0.00 | 0.07 | 0.07 | 76 | 1015.1 |
| 20260505181642 | 60 | 351 | 5.0 | 12.0 | 0.00 | 0.07 | 0.07 | 77 | 1015.1 |
| 20260505180916 | 60 | 300 | 5.0 | 12.0 | 0.00 | 0.07 | 0.07 | 77 | 1015.2 |
| 20260505180415 | 60 | 312 | 4.0 | 10.0 | 0.00 | 0.07 | 0.07 | 78 | 1015.1 |
| 20260505175915 | 59 | 318 | 5.0 | 9.0 | 0.00 | 0.07 | 0.07 | 78 | 1015.1 |
| 20260505175414 | 59 | 300 | 5.0 | 10.0 | 0.00 | 0.07 | 0.07 | 79 | 1015.1 |
| 20260505174915 | 59 | 317 | 4.0 | 10.0 | 0.00 | 0.07 | 0.07 | 79 | 1015.1 |
| 20260505174414 | 58 | 307 | 5.0 | 10.0 | 0.00 | 0.07 | 0.07 | 80 | 1015.0 |
| 20260505173909 | 58 | 296 | 5.0 | 10.0 | 0.00 | 0.07 | 0.07 | 80 | 1014.9 |
| 20260505173410 | 58 | 296 | 5.0 | 10.0 | 0.00 | 0.07 | 0.07 | 80 | 1014.8 |
| 20260505172909 | 58 | 313 | 4.0 | 10.0 | 0.00 | 0.07 | 0.07 | 81 | 1014.8 |
| 20260505172405 | 58 | 321 | 4.0 | 10.0 | 0.00 | 0.07 | 0.07 | 81 | 1014.8 |
| 20260505172125 | 57 | 307 | 5.0 | 11.0 | 0.00 | 0.07 | 0.07 | 81 | 1014.8 |
| 20260505171405 | 57 | 324 | 5.0 | 12.0 | 0.00 | 0.07 | 0.07 | 82 | 1014.8 |
| 20260505170905 | 57 | 304 | 5.0 | 12.0 | 0.00 | 0.07 | 0.07 | 82 | 1014.8 |
| 20260505170404 | 57 | 307 | 4.0 | 9.0 | 0.00 | 0.07 | 0.07 | 83 | 1014.8 |
| 20260505170122 | 57 | 298 | 4.0 | 9.0 | 0.00 | 0.07 | 0.07 | 83 | 1014.8 |
| 20260505165401 | 56 | 295 | 4.0 | 8.0 | 0.00 | 0.07 | 0.07 | 83 | 1014.8 |
| 20260505165119 | 56 | 312 | 4.0 | 9.0 | 0.00 | 0.07 | 0.07 | 84 | 1014.7 |
| 20260505164359 | 56 | 311 | 4.0 | 11.0 | 0.00 | 0.07 | 0.07 | 85 | 1014.8 |
| 20260505163900 | 56 | 304 | 4.0 | 11.0 | 0.00 | 0.07 | 0.07 | 85 | 1014.7 |
| 20260505163358 | 56 | 314 | 4.0 | 8.0 | 0.00 | 0.07 | 0.07 | 86 | 1014.7 |
| 20260505162856 | 56 | 304 | 3.0 | 9.0 | 0.00 | 0.07 | 0.07 | 87 | 1014.7 |
| 20260505162353 | 55 | 309 | 2.0 | 9.0 | 0.00 | 0.07 | 0.07 | 87 | 1014.7 |
| 20260505161851 | 55 | 258 | 2.0 | 6.0 | 0.00 | 0.07 | 0.07 | 87 | 1014.7 |
| 20260505161351 | 55 | 295 | 3.0 | 7.0 | 0.00 | 0.07 | 0.07 | 87 | 1014.7 |
| 20260505160851 | 55 | 323 | 2.0 | 7.0 | 0.00 | 0.07 | 0.07 | 88 | 1014.7 |
| 20260505160347 | 55 | 253 | 0.0 | 4.0 | 0.00 | 0.07 | 0.07 | 88 | 1014.6 |
| 20260505160109 | 55 | 267 | 0.0 | 0.0 | 0.00 | 0.07 | 0.07 | 88 | 1014.6 |
| 20260505153336 | 55 | 267 | 0.0 | 2.0 | 0.00 | 0.07 | 0.07 | 88 | 1014.5 |
| 20260505152836 | 55 | 267 | 0.0 | 2.0 | 0.00 | 0.07 | 0.07 | 89 | 1014.5 |
| 20260505152336 | 55 | 268 | 0.0 | 2.0 | 0.00 | 0.07 | 0.07 | 89 | 1014.4 |
| 20260505151836 | 55 | 268 | 0.0 | 2.0 | 0.00 | 0.07 | 0.07 | 89 | 1014.4 |
| 20260505151335 | 55 | 269 | 0.0 | 2.0 | 0.00 | 0.07 | 0.07 | 89 | 1014.4 |
| 20260505150832 | 54 | 269 | 1.0 | 3.0 | 0.00 | 0.07 | 0.07 | 89 | 1014.3 |
| 20260505150333 | 54 | 281 | 0.0 | 3.0 | 0.00 | 0.07 | 0.07 | 89 | 1014.3 |
| 20260505140321 | 54 | 264 | 1.0 | 4.0 | 0.00 | 0.07 | 0.07 | 88 | 1013.9 |
| 20260505130307 | 54 | 209 | 0.0 | 0.0 | 0.00 | 0.07 | 0.07 | 88 | 1013.4 |
| 20260505124804 | 53 | 209 | 0.0 | 0.0 | 0.00 | 0.07 | 0.07 | 88 | 1013.3 |
| 20260505124301 | 53 | 209 | 0.0 | 0.0 | 0.00 | 0.07 | 0.07 | 87 | 1013.3 |
| 20260505124243 | 53 | 209 | 0.0 | 1.0 | 0.00 | 0.07 | 0.07 | 87 | 1013.4 |
| 20260505123258 | 53 | 209 | 0.0 | 1.0 | 0.00 | 0.07 | 0.07 | 87 | 1013.4 |
| 20260505122755 | 53 | 209 | 0.0 | 1.0 | 0.00 | 0.07 | 0.07 | 87 | 1013.4 |
| 20260505122252 | 53 | 209 | 0.0 | 0.0 | 0.00 | 0.07 | 0.07 | 87 | 1013.4 |
| 20260505121752 | 53 | 209 | 0.0 | 1.0 | 0.00 | 0.07 | 0.07 | 87 | 1013.3 |
| 20260505121243 | 53 | 209 | 0.0 | 1.0 | 0.00 | 0.07 | 0.07 | 87 | 1013.4 |
| 20260505120742 | 53 | 209 | 0.0 | 0.0 | 0.00 | 0.07 | 0.07 | 87 | 1013.3 |
| 20260505120242 | 53 | 209 | 0.0 | 0.0 | 0.00 | 0.07 | 0.07 | 87 | 1013.5 |
| 20260505115743 | 53 | 209 | 0.0 | 0.0 | 0.01 | 0.07 | 0.07 | 87 | 1013.6 |
| 20260505115506 | 54 | 209 | 0.0 | 0.0 | 0.01 | 0.07 | 0.07 | 86 | 1013.6 |
| 20260505114741 | 54 | 209 | 0.0 | 0.0 | 0.01 | 0.07 | 0.07 | 86 | 1013.6 |
| 20260505114241 | 54 | 209 | 0.0 | 2.0 | 0.01 | 0.07 | 0.07 | 86 | 1013.6 |
| 20260505114000 | 54 | 209 | 1.0 | 3.0 | 0.01 | 0.07 | 0.07 | 86 | 1013.6 |
| 20260505113240 | 54 | 209 | 2.0 | 5.0 | 0.01 | 0.07 | 0.07 | 86 | 1013.6 |
| 20260505112737 | 54 | 209 | 2.0 | 5.0 | 0.01 | 0.07 | 0.07 | 86 | 1013.5 |
| 20260505112235 | 54 | 218 | 2.0 | 5.0 | 0.01 | 0.07 | 0.07 | 86 | 1013.6 |
| 20260505111735 | 54 | 254 | 1.0 | 3.0 | 0.02 | 0.07 | 0.07 | 86 | 1013.7 |
| 20260505111719 | 54 | 265 | 1.0 | 3.0 | 0.02 | 0.07 | 0.07 | 86 | 1013.7 |
| 20260505110732 | 54 | 275 | 0.0 | 3.0 | 0.02 | 0.07 | 0.07 | 86 | 1013.8 |
| 20260505110232 | 54 | 278 | 0.0 | 2.0 | 0.02 | 0.07 | 0.07 | 86 | 1013.9 |
| 20260505101724 | 54 | 279 | 0.0 | 2.0 | 0.03 | 0.05 | 0.05 | 85 | 1013.9 |
| 20260505101222 | 54 | 279 | 0.0 | 2.0 | 0.03 | 0.05 | 0.05 | 85 | 1013.9 |
| 20260505100722 | 54 | 279 | 1.0 | 3.0 | 0.04 | 0.05 | 0.05 | 85 | 1013.9 |
| 20260505100222 | 54 | 279 | 1.0 | 3.0 | 0.04 | 0.05 | 0.05 | 85 | 1013.9 |
| 20260505095719 | 54 | 280 | 1.0 | 3.0 | 0.04 | 0.05 | 0.05 | 85 | 1014.0 |
| 20260505095218 | 54 | 281 | 1.0 | 3.0 | 0.04 | 0.05 | 0.05 | 85 | 1014.0 |
| 20260505094718 | 54 | 284 | 0.0 | 2.0 | 0.03 | 0.04 | 0.04 | 84 | 1014.0 |
| 20260505094218 | 54 | 284 | 0.0 | 0.0 | 0.02 | 0.03 | 0.04 | 84 | 1014.0 |
| 20260505093933 | 54 | 285 | 0.0 | 1.0 | 0.02 | 0.03 | 0.03 | 84 | 1014.0 |
| 20260505093215 | 54 | 285 | 0.0 | 2.0 | 0.01 | 0.02 | 0.02 | 84 | 1014.1 |
| 20260505092714 | 54 | 285 | 0.0 | 2.0 | 0.01 | 0.02 | 0.02 | 84 | 1014.3 |
| 20260505092215 | 54 | 284 | 1.0 | 3.0 | 0.01 | 0.02 | 0.02 | 84 | 1014.3 |
| 20260505091714 | 54 | 284 | 2.0 | 3.0 | 0.01 | 0.02 | 0.02 | 84 | 1014.3 |
| 20260505091212 | 54 | 285 | 2.0 | 4.0 | 0.01 | 0.02 | 0.02 | 84 | 1014.3 |
| 20260505090712 | 54 | 287 | 2.0 | 4.0 | 0.00 | 0.01 | 0.01 | 84 | 1014.3 |
| 20260505090213 | 54 | 284 | 1.0 | 3.0 | 0.00 | 0.01 | 0.01 | 84 | 1014.3 |
| 20260505085712 | 54 | 285 | 1.0 | 2.0 | 0.00 | 0.01 | 0.01 | 84 | 1014.3 |
| 20260505085212 | 54 | 285 | 1.0 | 2.0 | 0.00 | 0.01 | 0.01 | 84 | 1014.3 |
| 20260505084710 | 54 | 285 | 1.0 | 2.0 | 0.00 | 0.01 | 0.01 | 84 | 1014.3 |
| 20260505084212 | 54 | 285 | 1.0 | 2.0 | 0.00 | 0.01 | 0.01 | 84 | 1014.2 |
| 20260505083710 | 54 | 285 | 0.0 | 2.0 | 0.00 | 0.01 | 0.01 | 84 | 1014.2 |
| 20260505083208 | 54 | 285 | 0.0 | 1.0 | 0.00 | 0.01 | 0.01 | 83 | 1014.3 |
| 20260505082656 | 54 | 285 | 0.0 | 1.0 | 0.00 | 0.01 | 0.01 | 83 | 1014.4 |
| 20260505082414 | 54 | 285 | 0.0 | 1.0 | 0.00 | 0.01 | 0.01 | 83 | 1014.5 |
| 20260505081925 | 54 | 285 | 0.0 | 2.0 | 0.00 | 0.01 | 0.01 | 83 | 1014.6 |
| 20260505081153 | 54 | 285 | 1.0 | 4.0 | 0.00 | 0.01 | 0.01 | 83 | 1014.6 |
| 20260505080654 | 54 | 285 | 2.0 | 4.0 | 0.00 | 0.01 | 0.01 | 83 | 1014.6 |
| 20260505080154 | 54 | 290 | 1.0 | 4.0 | 0.01 | 0.01 | 0.01 | 83 | 1014.7 |
| 20260505075916 | 54 | 291 | 1.0 | 4.0 | 0.01 | 0.01 | 0.01 | 83 | 1014.8 |
| 20260505075150 | 54 | 305 | 2.0 | 4.0 | 0.01 | 0.01 | 0.01 | 83 | 1014.8 |
| 20260505074649 | 54 | 309 | 2.0 | 4.0 | 0.01 | 0.01 | 0.01 | 83 | 1014.8 |
| 20260505074148 | 54 | 311 | 3.0 | 7.0 | 0.01 | 0.01 | 0.01 | 83 | 1014.9 |
| 20260505073646 | 54 | 319 | 3.0 | 7.0 | 0.01 | 0.01 | 0.01 | 82 | 1014.8 |
| 20260505073146 | 55 | 309 | 3.0 | 9.0 | 0.01 | 0.01 | 0.01 | 82 | 1014.7 |
| 20260505072910 | 55 | 304 | 3.0 | 9.0 | 0.01 | 0.01 | 0.01 | 82 | 1014.8 |
| 20260505072146 | 55 | 305 | 4.0 | 8.0 | 0.01 | 0.01 | 0.01 | 82 | 1015.0 |
| 20260505071645 | 55 | 305 | 3.0 | 8.0 | 0.01 | 0.01 | 0.01 | 81 | 1014.9 |
| 20260505071138 | 55 | 315 | 3.0 | 8.0 | 0.01 | 0.01 | 0.01 | 81 | 1014.7 |
| 20260505070636 | 55 | 306 | 3.0 | 8.0 | 0.01 | 0.01 | 0.01 | 81 | 1014.7 |
| 20260505070351 | 55 | 328 | 4.0 | 9.0 | 0.00 | 0.00 | 0.00 | 80 | 1014.8 |